Location: Unspecified
(55.7561°N, 0.0000°E)
Time: 01:12:10
(UTC+00:00)

Daily predictions for brighter satellites

Satellite Brightness Start Highest point End
(mag) Time Altitude Azimuth Time Altitude Azimuth Time Altitude Azimuth
USA 281 3.4 00:08:48 50° ESE 00:10:30 69° NE 00:17:04 10° NNW
SJ 16-02 3.2 00:08:15 10° N 00:11:46 23° NE 00:12:35 22° ENE
Cosmos 921 Rocket 4.0 00:09:56 10° NNW 00:13:31 46° NNE 00:13:31 46° NNE
Cosmos 1125 Rocket 3.7 00:16:01 65° NW 00:16:01 65° NW 00:21:01 10° NNE
Cosmos 1140 Rocket 3.6 00:16:59 10° NNW 00:21:37 70° N 00:21:37 70° N
ARGOS Delta rocket 4.4 00:21:07 10° N 00:24:27 50° N 00:24:27 50° N
Cosmos 2297 3.7 00:20:38 10° NW 00:25:55 72° WNW 00:25:55 72° WNW
Cosmos 1816 Rocket 4.4 00:20:20 10° N 00:26:39 77° ENE 00:27:12 71° ESE
ATLAS 5 CENTAUR R/B 3.2 00:23:45 10° NW 00:26:46 27° NNE 00:30:18 10° ENE
Cosmos 1943 Rocket 4.4 00:25:09 10° WNW 00:26:42 12° W 00:26:42 12° W
Cosmos 1605 Rocket 4.2 00:29:35 55° W 00:30:06 57° WNW 00:36:07 10° N
NOSS 3-4 (A) 3.2 00:31:16 75° E 00:31:16 75° E 00:36:58 10° NE
NOSS 3-4 (C) 3.2 00:31:43 75° E 00:31:43 75° E 00:37:28 10° NE
Cosmos 2237 Rocket 2.5 00:34:15 57° WNW 00:34:49 60° NW 00:40:30 10° NNE
Cosmos 1980 4.1 00:34:12 53° WNW 00:34:51 57° NW 00:40:27 10° NNE
USA 267 3.5 00:31:34 10° ENE 00:37:27 51° SE 00:37:27 51° SE
Cosmos 967 Rocket 4.3 00:34:11 10° NW 00:40:41 81° SW 00:41:02 78° S
CZ-2C R/B 3.1 00:41:30 51° W 00:41:30 51° W 00:46:28 10° NNW
Cosmos 2016 Rocket 4.4 00:41:45 49° ESE 00:42:38 53° E 00:48:48 10° NNE
Cosmos 371 Rocket 3.9 00:39:52 10° NNW 00:44:36 52° NE 00:44:45 52° ENE
Okean 2 Rocket 4.0 00:46:36 43° NE 00:46:36 43° NE 00:49:56 10° NNE
CZ-2C R/B 3.2 00:41:11 10° NNE 00:45:28 63° NNW 00:45:28 63° NNW
Cosmos 1459 Rocket 3.9 00:46:28 72° SSE 00:47:05 79° E 00:53:29 10° NNE
Cosmos 2100 Rocket 3.8 00:49:36 79° S 00:50:02 88° E 00:56:14 10° NNE
COSMOS 2428 4.2 00:47:15 21° W 00:50:04 32° NW 00:55:13 10° NNE
Sich 1 Rocket 4.5 00:51:50 44° ENE 00:51:50 44° ENE 00:55:23 10° NNE
Cosmos 1315 Rocket 4.5 00:53:36 29° NNW 00:53:36 29° NNW 00:55:50 10° N
Cosmos 304 Rocket 4.1 00:47:34 10° NNW 00:52:00 61° NE 00:52:00 61° NE
Meteor 2-3 Rocket 3.6 00:47:39 10° NNW 00:53:19 84° W 00:53:19 84° W
NOSS 3-1 (C) 3.7 00:48:41 10° NW 00:55:17 76° SW 00:57:28 51° SSE
Cosmos 2298 Rocket 4.0 00:56:17 81° N 00:56:17 81° N 01:01:25 10° NNE
ATLAS 3B R/B 3.9 00:49:03 10° WNW 00:56:39 48° N 01:04:09 10° ENE
IDEFIX/ARIANE 42P 3.9 00:54:12 10° NNE 00:58:40 28° E 00:59:14 28° ESE
Cosmos 2173 Rocket 3.8 00:58:28 77° SW 00:58:56 85° WNW 01:05:04 10° N
ARIANE 6 FM1 Upper Stage 4.0 01:01:16 36° NNW 01:01:19 36° N 01:05:02 10° ENE
Cosmos 2369 Rocket 3.2 01:02:42 10° NW 01:06:27 34° WNW 01:06:27 34° WNW
Cosmos 2084 Rocket 4.5 01:19:33 40° ENE 01:19:33 40° ENE 01:22:19 10° NE
Cosmos 1802 Rocket 3.9 01:21:30 65° SSW 01:22:30 82° WNW 01:28:54 10° N
Cosmos 407 Rocket 3.7 01:20:41 10° NNW 01:25:07 58° WNW 01:25:07 58° WNW
Cosmos 2228 4.0 01:26:15 39° E 01:26:15 39° E 01:30:00 10° NNE
Cosmos 1943 3.4 01:25:57 56° SE 01:26:22 57° ESE 01:31:57 10° NE
Cosmos 1892 Rocket 4.0 01:22:03 10° NNW 01:25:40 57° NNW 01:25:40 57° NNW
Cosmos 1626 Rocket 4.3 01:26:45 10° N 01:30:55 45° ENE 01:31:19 44° E
Cosmos 1697 Rocket 4.2 01:26:45 10° NNW 01:31:57 35° NE 01:37:06 10° ESE
MSX 4.3 01:26:50 10° NNE 01:32:27 51° E 01:33:43 43° SE
Okean 1 Rocket 3.5 01:34:05 56° NNW 01:34:05 56° NNW 01:37:43 10° N
Lacrosse 5 rocket 3.3 01:38:37 17° ENE 01:38:37 17° ENE 01:39:28 10° ENE
SL-16 R/B 2.3 01:36:11 57° W 01:37:02 64° NW 01:42:43 10° NNE
Meteor 2-1 Rocket 4.2 01:37:37 64° SW 01:38:25 74° WNW 01:44:22 10° NNE
SL-08 R/B 4.3 01:39:08 63° SSW 01:40:10 82° WNW 01:46:21 10° N
NOSS 3-1 (A) 3.8 01:33:33 10° NW 01:40:13 80° SW 01:48:41 10° SE
RESURS DK-1 3.5 01:41:19 35° NNW 01:41:19 35° NNW 01:44:44 10° NNE
Cosmos 2061 Rocket 3.9 01:40:34 56° S 01:41:58 82° E 01:48:12 10° NNE
Cosmos 1725 Rocket 4.0 01:41:30 56° SW 01:42:40 67° WNW 01:48:59 10° N
Cosmos 1980 Rocket 4.3 01:38:41 10° NNW 01:43:31 27° NNE 01:48:21 10° E
NPP 4.3 01:38:41 10° NNE 01:43:56 49° E 01:45:14 40° SE
COSMOS 2455 2.7 01:38:27 10° NW 01:44:30 79° SW 01:46:22 46° SSE
ACS3 Solar Sail 1.6 01:39:17 10° NNE 01:45:13 84° ESE 01:46:32 57° S
Cosmos 1782 3.6 01:48:38 43° NE 01:48:38 43° NE 01:51:17 10° NNE
SJ 16-02 2.0 01:45:59 10° NNW 01:49:04 44° NW 01:49:04 44° NW
Spot 1 4.4 01:48:36 10° N 01:52:09 54° NW 01:52:09 54° NW
Cosmos 1656 3.5 01:49:28 10° NNW 01:54:57 85° ENE 01:57:28 33° SE
USA 281 3.8 01:55:39 36° WSW 01:55:39 36° WSW 02:01:28 10° NW
Cosmos 332 Rocket 4.2 01:52:19 10° NNW 01:57:09 62° ENE 01:59:53 25° SE
Cosmos 2251 Rocket 3.4 01:56:27 10° NNW 02:01:43 67° WSW 02:02:05 65° SW
Resurs 1-4 Rocket 3.6 01:57:34 10° NNE 02:02:15 30° E 02:05:13 18° SE
H-2A R/B 3.2 02:02:41 38° ESE 02:03:33 45° ENE 02:07:10 10° N
Cosmos 1455 Rocket 3.1 02:03:57 64° WNW 02:03:57 64° WNW 02:08:11 10° N
Cosmos 1190 Rocket 3.9 01:59:12 10° NNW 02:04:29 69° WSW 02:05:00 64° SSW
Tsikada Rocket 4.3 01:58:42 10° NNW 02:04:46 47° W 02:05:41 44° WSW
Cosmos 1758 Rocket 3.4 02:02:53 10° NNW 02:07:13 85° ENE 02:07:24 80° SE
Cosmos 1544 Rocket 4.2 02:08:05 43° SE 02:08:59 50° E 02:13:17 10° NNE
ATLAS 5 CENTAUR R/B 1.8 02:05:41 10° NW 02:09:25 61° NNE 02:14:02 10° ESE
DMSP B5D2-2 4.2 02:10:17 28° SSE 02:13:03 72° ENE 02:18:14 10° NNW
Cosmos 2233 Rocket 4.2 02:14:27 44° WSW 02:16:09 57° WNW 02:22:23 10° N
CZ-2D R/B 3.3 02:14:05 10° NNE 02:18:50 35° E 02:21:58 19° SSE
Cosmos 2237 Rocket 4.1 02:16:01 12° WNW 02:20:02 24° NNW 02:24:36 10° NNE
USA 267 3.2 02:14:45 10° ENE 02:21:22 90° SE 02:24:48 31° WSW
NOSS 3-4 (A) 4.1 02:18:39 22° W 02:22:09 47° NNW 02:28:25 10° ENE
Meteor 1-25 Rocket 4.4 02:16:42 10° NNW 02:22:35 75° ENE 02:27:01 18° SSE
NOSS 3-4 (C) 4.1 02:19:06 22° W 02:22:37 47° NNW 02:28:55 10° ENE
ADEOS II 3.6 02:18:47 10° NNE 02:23:22 30° E 02:27:21 13° SSE
Cosmos 1464 Rocket 4.3 02:20:08 28° SSE 02:23:27 64° E 02:29:34 10° NNE
Okean 2 Rocket 4.5 02:23:48 25° WNW 02:23:53 25° WNW 02:27:33 10° N
Aureole 3 Rocket 3.0 02:25:14 50° NW 02:25:14 50° NW 02:28:42 10° N
Cosmos 1818 3.6 02:19:42 10° NW 02:25:13 79° NE 02:30:41 10° SE
USA 229 DEB 4.3 02:26:03 10° NW 02:33:06 66° NNE 02:41:04 10° ESE
USA 229 4.3 02:26:07 10° NW 02:33:10 66° NNE 02:41:08 10° ESE
Cosmos 2360 4.1 02:27:37 10° NW 02:33:16 65° WSW 02:37:02 21° SSE
Cosmos 44 3.4 02:31:59 48° WSW 02:33:27 79° NW 02:38:51 10° NE
Cosmos 676 Rocket 4.0 02:29:22 10° NNW 02:34:39 63° WSW 02:36:32 38° S
IDEFIX/ARIANE 42P 2.7 02:33:23 10° N 02:38:29 59° WNW 02:39:56 43° WSW
COSMOS 2441 4.3 02:33:41 10° NNE 02:38:34 81° ESE 02:40:15 41° S
BREEZE-M DEB (TANK) 4.5 02:39:46 18° SE 02:39:46 18° SE 02:42:22 10° E
GP-B 2.9 02:35:00 10° N 02:39:24 84° W 02:40:30 50° S
NOAA 11 4.2 02:33:57 10° NNE 02:39:25 77° ESE 02:41:55 33° S
Cosmos 1933 3.5 02:39:15 46° SSE 02:40:06 60° E 02:43:53 10° NNE
Cosmos 1420 Rocket 3.9 02:38:37 45° SSW 02:40:16 85° WNW 02:45:34 10° NNE
ARIANE 6 FM1 Upper Stage 4.0 02:37:16 10° WNW 02:41:02 37° NNE 02:44:45 10° E
Cosmos 1602 Rocket 3.4 02:36:56 10° NNW 02:41:20 77° W 02:42:28 48° S
Nadezhda 4 Rocket 3.9 02:35:17 10° NNW 02:41:33 76° W 02:45:21 25° S
Cosmos 1428 Rocket 4.4 02:35:14 10° NNW 02:41:34 84° W 02:46:13 19° S
Cosmos 1825 Rocket 3.9 02:37:34 10° N 02:41:54 62° ENE 02:45:09 17° SSE
Spot 2 4.1 02:39:54 30° SSE 02:42:04 89° SW 02:46:47 10° NNW
Cosmos 1833 Rocket 4.1 02:39:51 15° SSE 02:43:40 31° ESE 02:48:31 10° NE
Cosmos 1603 3.6 02:42:05 40° SW 02:44:12 89° NW 02:49:55 10° NE
Cosmos 2098 Rocket 3.8 02:41:44 28° SSE 02:44:17 63° E 02:49:40 10° NNE
Cosmos 2056 Rocket 3.7 02:42:22 35° S 02:44:38 68° ESE 02:50:01 10° NNE
Cosmos 1954 Rocket 4.3 02:39:56 10° NW 02:44:54 42° WSW 02:45:21 41° WSW
ATLAS 3B R/B 3.4 02:40:47 10° NW 02:48:40 65° NNE 02:56:15 10° ESE
Cosmos 1850 Rocket 4.0 02:44:13 10° NNW 02:49:29 81° ENE 02:54:41 10° SSE
MOZ.5/SAFIR/RUBIN 5/SL-8 4.1 02:49:45 42° WSW 02:50:20 45° W 02:54:52 10° NNW
Cosmos 2151 3.1 02:48:04 10° NNW 02:52:05 48° W 02:52:22 48° WSW
H-2A R/B 2.7 02:50:41 10° NNE 02:55:27 48° E 02:59:20 15° S
ALOS 2.6 02:52:01 10° NNE 02:56:34 61° ESE 02:59:10 24° S
Cosmos 2084 Rocket 4.4 02:55:20 25° WNW 02:57:10 40° NNW 03:01:08 10° NE
BREEZE-M DEB (TANK) 4.0 02:55:57 32° SW 02:57:20 38° S 03:02:37 10° ESE
Cosmos 1624 Rocket 4.0 02:55:25 33° SSW 02:57:48 80° ESE 03:03:02 10° NNE
Cosmos 2195 Rocket 4.4 02:52:30 10° NNW 02:58:52 81° W 03:05:03 11° S
Cosmos 2228 4.0 03:02:29 29° W 03:03:06 30° WNW 03:06:53 10° N
Cosmos 1092 Rocket 4.0 02:58:55 10° N 03:05:12 86° ENE 03:11:23 10° S
ADEOS Rocket 3.3 02:59:16 10° NNE 03:05:54 74° WNW 03:10:37 24° SSW
Cosmos 1943 4.0 03:07:42 24° W 03:10:38 41° NW 03:16:02 10° NNE
FENGYUN 3A 4.1 03:06:46 10° N 03:11:58 47° WNW 03:14:26 28° WSW
Lacrosse 5 rocket 0.7 03:11:54 38° WNW 03:13:01 80° NNE 03:16:17 10° E
Cosmos 1437 Rocket 2.7 03:13:31 28° S 03:15:05 62° E 03:18:30 10° NNE
Cosmos 1697 Rocket 2.6 03:10:43 10° NW 03:16:22 71° WSW 03:21:58 10° SSE
Cosmos 2026 Rocket 3.9 03:11:58 10° NNW 03:18:04 71° W 03:24:14 10° S
SL-19 R/B 4.4 03:14:51 10° NNE 03:20:32 78° ESE 03:25:01 16° SSW
Cosmos 968 Rocket 3.7 03:15:46 10° NW 03:20:41 46° WSW 03:25:37 10° S
SL-16 R/B 3.9 03:18:01 11° WNW 03:22:13 24° NNW 03:26:50 10° NNE
Cosmos 1782 4.4 03:22:35 17° WNW 03:22:48 17° WNW 03:25:10 10° NNW
NPP 4.4 03:19:08 10° N 03:24:05 38° WNW 03:26:44 24° WSW
Envisat 3.0 03:19:05 10° NNE 03:24:09 71° WNW 03:27:20 23° SSW
Cosmos 1371 Rocket 4.0 03:22:12 27° SW 03:25:06 71° WNW 03:30:23 10° NNE
ACS3 Solar Sail 3.0 03:22:22 10° N 03:27:08 26° NW 03:30:09 18° W
Cosmos 1606 Rocket 3.5 03:25:08 21° SSW 03:28:04 84° WNW 03:32:33 10° N
Cosmos 1980 Rocket 2.4 03:22:39 10° NNW 03:28:23 78° NE 03:34:06 10° SE
COSMOS 2455 4.0 03:25:16 10° WNW 03:29:24 21° WSW 03:29:24 21° WSW
Meteor 2-10 4.1 03:27:01 10° NNW 03:32:05 59° W 03:37:19 10° S
Cosmos 1805 3.3 03:29:09 10° NNW 03:32:14 38° W 03:32:50 34° WSW
SL-16 R/B 2.6 03:26:14 10° SSE 03:32:28 89° E 03:38:48 10° NNW
Cosmos 1110 Rocket 4.2 03:29:21 16° SSW 03:33:27 71° ESE 03:38:43 10° NNE
Cosmos 1741 Rocket 4.1 03:28:47 10° NW 03:33:57 55° WSW 03:39:05 10° S
SL-24 R/B 4.4 03:29:08 10° N 03:33:59 86° E 03:38:58 10° S
Cosmos 1331 Rocket 4.2 03:31:29 15° SSW 03:35:48 71° ESE 03:41:06 10° NNE
Cosmos 1634 Rocket 4.1 03:29:57 10° S 03:36:10 80° E 03:42:24 10° NNE
Okean 1-7 Rocket 4.1 03:33:08 10° NNW 03:37:12 37° W 03:39:27 22° SW
H-2A R/B 3.4 03:37:39 23° W 03:37:43 23° W 03:40:47 10° NW
Cosmos 292 Rocket 4.2 03:34:45 10° NW 03:39:13 39° WSW 03:43:39 10° S
Cosmos 1908 3.5 03:37:24 10° NNW 03:38:30 22° NW 03:38:30 22° NW
Cosmos 1536 3.1 03:35:50 10° N 03:39:31 61° ENE 03:43:10 10° SSE
NOSS 8 (H) 4.3 03:40:25 26° SW 03:42:20 87° SE 03:45:27 10° NE
Resurs 1-4 Rocket 2.3 03:37:07 10° NNE 03:42:21 59° WNW 03:46:16 18° SW
Aureole 1 4.5 03:41:59 29° WSW 03:43:17 51° WNW 03:46:14 10° NNE
AQUA 4.3 03:40:06 10° NNE 03:44:45 60° ESE 03:49:23 10° S
Cosmos 1076 Rocket 3.7 03:41:49 10° NNW 03:45:58 49° W 03:50:09 10° S
Cosmos 2082 Rocket 4.4 03:41:54 10° SSE 03:46:12 22° ESE 03:50:31 10° NE
Cosmos 1452 Rocket 3.9 03:41:09 10° SSW 03:46:16 64° ESE 03:51:29 10° NNE
ATLAS 5 CENTAUR R/B 2.1 03:47:45 10° WNW 03:51:29 34° SW 03:55:59 10° SSE
Cosmos 1766 2.6 03:51:44 10° NNW 03:54:58 89° W 03:58:11 10° S
BREEZE-M DEB (TANK) 4.0 03:41:31 10° W 03:55:22 52° SSW 03:59:21 10° ESE
Cosmos 2360 Rocket 4.2 03:50:34 10° NNW 03:55:32 30° NNE 04:00:30 10° E
Cosmos 1953 Rocket 3.8 03:51:21 10° NNW 03:55:39 49° W 03:59:57 10° SSW
Cosmos 2322 Rocket 4.1 03:53:01 10° NNW 03:58:02 32° NE 04:03:02 10° E
ARGOS 3.4 03:52:54 10° NNE 03:58:22 73° ESE 04:03:46 10° S
CZ-2D R/B 2.4 03:53:59 10° N 03:59:00 49° WNW 04:03:14 14° SW
SL-16 R/B 3.5 03:55:44 10° NNW 04:01:11 44° NE 04:06:36 10° ESE
Meteor 1-28 Rocket 3.2 03:59:21 10° SSE 04:02:38 67° ENE 04:05:55 10° N
ADEOS II 2.2 03:58:05 10° N 04:03:14 58° WNW 04:08:10 11° SW
USA 267 3.4 03:57:50 10° E 04:04:25 82° N 04:11:00 10° W
Meteor 1-26 Rocket 4.2 04:01:51 10° SSW 04:07:23 89° ESE 04:12:49 10° NNE
Cosmos 1726 Rocket 3.9 04:03:48 12° SSW 04:07:56 51° WNW 04:12:20 10° N
Cosmos 1818 4.3 04:03:41 10° WNW 04:08:21 29° WSW 04:12:59 10° S
UNK 4.0 04:04:43 10° SSE 04:09:18 74° ENE 04:13:56 10° NNW
SL-08 ROCKET BODY 4.4 04:04:48 10° NNW 04:10:33 59° W 04:16:21 10° S
Geosat 4.2 04:07:06 10° SE 04:12:06 75° NE 04:17:07 10° NNW
Okean 1 3.5 04:11:30 13° SW 04:14:23 41° WNW 04:17:47 10° N
IDEFIX/ARIANE 42P 4.4 04:14:02 10° N 04:17:00 16° NW 04:19:57 10° W
H-2A R/B 1.9 04:16:00 10° NNE 04:20:15 79° WNW 04:24:23 10° SSW
ARIANE 6 FM1 Upper Stage 2.5 04:16:23 10° NW 04:20:24 90° NNE 04:24:21 10° SE
USA 229 DEB 4.1 04:17:01 10° NW 04:24:10 57° SW 04:32:06 10° SSE
USA 229 4.1 04:17:04 10° NW 04:24:14 58° SW 04:32:12 10° SSE
KORONAS-FOTON 3.6 04:23:13 10° S 04:26:33 78° E 04:29:53 10° NNE
Cosmos 1833 Rocket 2.8 04:21:39 10° SW 04:27:14 67° NW 04:32:52 10° NNE
Cosmos 1707 1.9 04:24:54 10° SSW 04:27:49 72° WNW 04:30:46 10° N
ATLAS 2AS CENTAUR R/B 3.0 04:22:08 10° SW 04:29:02 69° SE 04:35:49 10° NE
Cosmos-2242 3.1 04:25:06 10° SSW 04:29:16 54° WNW 04:33:27 10° N
Cosmos 2279 Rocket 4.0 04:25:04 10° SSW 04:31:13 66° WNW 04:37:27 10° N
Cosmos 2333 Rocket 3.0 04:25:48 10° NNW 04:31:24 56° NE 04:36:58 10° SE
Iridium 4 Rocket 3.0 04:27:42 10° S 04:31:52 82° W 04:36:15 10° N
ALOS 3.4 04:29:27 10° N 04:33:12 25° WNW 04:36:56 10° WSW
H-2A R/B 2.7 04:30:15 10° N 04:34:40 34° WNW 04:39:08 10° SW
Meteor 1-14 Rocket 4.3 04:30:35 10° NNW 04:36:32 72° W 04:42:19 10° S
Cosmos 2058 Rocket 3.3 04:32:32 10° SSW 04:36:55 52° WNW 04:41:19 10° N
Cosmos 2219 Rocket 4.0 04:32:21 10° NNW 04:37:27 34° NE 04:42:33 10° ESE
ATLAS 3B R/B 3.1 04:31:54 10° NW 04:39:34 59° SW 04:46:50 10° SSE
Cosmos 2221 2.8 04:35:29 10° S 04:39:37 69° E 04:43:45 10° NNE
Cosmos 1470 2.3 04:36:16 10° NNW 04:39:39 67° W 04:42:59 10° S
Cosmos 2369 3.7 04:35:48 10° NW 04:41:25 65° WSW 04:47:02 10° SSE
Meteor 2-2 Rocket 4.3 04:35:57 10° SSW 04:41:39 63° WNW 04:47:17 10° N
SWARM A 4.2 04:41:49 10° N 04:45:02 58° W 04:48:14 10° SSW
Meteor 2-6 Rocket 4.2 04:39:50 10° SSW 04:45:22 83° WNW 04:51:07 10° NNE
Meteor 1-11 Rocket 4.0 04:40:38 10° NNW 04:46:39 90° W 04:52:37 10° SSE
Lacrosse 5 rocket 1.3 04:46:30 10° W 04:49:32 37° SSW 04:52:36 10° SE
